,,�O�C���x [��],����1,�O�C���x [��],����2,���ԉ��x [��],����3,���Ԏ��x [��],����4,�Q�����x [��],����5,�Q�����x [��],����6,1�K�z�[��(��󒲎�)���x [��],����7,���� [��],����8
2002/12/1,0:00,5.4,0,74.7,0,24.9,0,35.1,0,22.7,0,46.9,0,23.1,0,13.7,0
2002/12/1,0:15,5.4,0,74.9,0,25,0,35.2,0,22.8,0,46.8,0,23,0,12.2,0
2002/12/1,0:30,5.3,0,75,0,24.7,0,36,0,22.8,0,47.1,0,23,0,12.3,0
2002/12/1,0:45,4.9,0,77,0,24.7,0,35.9,0,23.2,0,46,0,22.8,0,12.5,0
2002/12/1,1:00,4.7,0,77.6,0,24.6,0,35.8,0,23.2,0,47.2,0,22.8,0,12.7,0
2002/12/1,1:15,4.6,0,78.7,0,24.6,0,35.7,0,23,0,47.2,0,22.8,0,12.8,0
2002/12/1,1:30,4.4,0,79.7,0,24.4,0,35.9,0,23,0,46.9,0,22.7,0,12.9,0
2002/12/1,1:45,4.4,0,80.2,0,24.4,0,35.9,0,22.9,0,46.7,0,22.7,0,13,0
2002/12/1,2:00,4.3,0,79.8,0,24.4,0,35.8,0,22.8,0,46.7,0,22.7,0,13.2,0
2002/12/1,2:15,4.1,0,81.4,0,24.5,0,35.5,0,22.8,0,46.6,0,22.7,0,13.3,0
2002/12/1,2:30,4.2,0,80,0,24.5,0,35.2,0,22.7,0,46.4,0,22.7,0,13.5,0
2002/12/1,2:45,4.3,0,78.2,0,24.5,0,35.1,0,22.6,0,46.5,0,22.7,0,13.7,0
2002/12/1,3:00,4.3,0,78.8,0,24.5,0,35.1,0,22.6,0,46.3,0,22.7,0,13.8,0
2002/12/1,3:15,3.6,0,83.9,0,24.4,0,35.2,0,22.5,0,46.1,0,22.7,0,13.9,0
2002/12/1,3:30,3.3,0,86.2,0,24.4,0,35.1,0,22.4,0,46.2,0,22.7,0,14.1,0
2002/12/1,3:45,3.4,0,87.2,0,24.4,0,35.2,0,22.4,0,46.3,0,22.7,0,14.2,0
2002/12/1,4:00,3.3,0,89.3,0,24.5,0,34.8,0,22.3,0,46.4,0,22.7,0,14.4,0
2002/12/1,4:15,2.5,0,92.2,0,24.3,0,35,0,22.2,0,46.3,0,22.6,0,14.5,0
2002/12/1,4:30,2.3,0,91.2,0,24.4,0,34.8,0,22.2,0,46.2,0,22.6,0,14.7,0
2002/12/1,4:45,1.8,0,93.6,0,24.3,0,34.8,0,22.1,0,46.1,0,22.6,0,14.8,0
2002/12/1,5:00,1.6,0,94.6,0,24.4,0,34.5,0,22,0,46.1,0,22.5,0,14.9,0
2002/12/1,5:15,1.2,0,95.8,0,24.3,0,34.6,0,21.9,0,46.1,0,22.6,0,15.1,0
2002/12/1,5:30,1,0,97.3,0,24.3,0,34.6,0,21.9,0,46.1,0,22.6,0,15.3,0
2002/12/1,5:45,0.7,0,96.8,0,24.3,0,34.4,0,21.8,0,46,0,22.5,0,15.4,0
2002/12/1,6:00,0.3,0,97.6,0,24.3,0,34.3,0,21.7,0,46.1,0,22.5,0,15.6,0
2002/12/1,6:15,0.1,0,97.6,0,24.3,0,34.3,0,21.6,0,46.1,0,22.5,0,15.7,0
2002/12/1,6:30,0.1,0,100,0,24.5,0,33.8,0,21.6,0,46.3,0,22.5,0,15.9,0
2002/12/1,6:45,0.2,0,99.5,0,24.4,0,33.7,0,21.5,0,46.3,0,22.5,0,16.1,0
2002/12/1,7:00,0.1,0,100,0,24.4,0,33.7,0,21.4,0,46.5,0,22.5,0,16.2,0
2002/12/1,7:15,0.6,0,99,0,24.4,0,33.6,0,21.4,0,46.7,0,22.5,0,16.3,0
2002/12/1,7:30,0.7,0,99.4,0,24.5,0,33.6,0,21.4,0,47.3,0,22.5,0,16.5,0
2002/12/1,7:45,1.4,0,96.5,0,24.1,0,34.4,0,21.6,0,47.2,0,22.4,0,12.1,0
2002/12/1,8:00,1.8,0,92.6,0,24.2,0,34,0,21.7,0,46.8,0,22.4,0,12.2,0
2002/12/1,8:15,2.2,0,90,0,24.2,0,33.3,0,21.8,0,46.4,0,22.4,0,12.1,0
2002/12/1,8:30,2.6,0,87.1,0,24,0,33.6,0,21.8,0,46.3,0,22.4,0,11.9,0
2002/12/1,8:45,3,0,84.5,0,23.9,0,33,0,21.9,0,46.2,0,22.3,0,12,0
2002/12/1,9:00,3.4,0,80,0,23.9,0,32.6,0,21.9,0,45.9,0,22.3,0,12.2,0
2002/12/1,9:15,4.1,0,78.1,0,24.2,0,32,0,22,0,45.5,0,22.2,0,13,0
2002/12/1,9:30,4.4,0,76.5,0,24.2,0,32,0,22.1,0,45.4,0,22.3,0,12.4,0
2002/12/1,9:45,5.1,0,73.3,0,24.1,0,31.5,0,22.1,0,45.5,0,22.2,0,12.5,0
2002/12/1,10:00,5.7,0,71.4,0,24.1,0,31.9,0,22.2,0,45.7,0,22.3,0,12.7,0
2002/12/1,10:15,6.2,0,68.3,0,24,0,31.7,0,22.2,0,45.6,0,22.3,0,12.8,0
2002/12/1,10:30,6.4,0,65.6,0,24,0,31.6,0,22.2,0,45.5,0,22.3,0,13,0
2002/12/1,10:45,7,0,65.2,0,24,0,32.5,0,22.3,0,45.4,0,22.3,0,12.3,0
2002/12/1,11:00,7.2,0,65.4,0,24,0,31.9,0,22.3,0,45.4,0,22.3,0,12.4,0
2002/12/1,11:15,7.4,0,64.2,0,23.8,0,32.1,0,22.4,0,45.3,0,22.3,0,12.6,0
2002/12/1,11:30,7.8,0,66.5,0,24.1,0,32.6,0,22.4,0,45.3,0,22.3,0,12.7,0
2002/12/1,11:45,8.3,0,66.4,0,24.2,0,32.8,0,22.4,0,45.1,0,22.4,0,12.8,0
2002/12/1,12:00,8.5,0,65.2,0,24.3,0,32.9,0,22.4,0,45.1,0,22.4,0,12.9,0
2002/12/1,12:15,8.8,0,64.7,0,24.4,0,33.4,0,22.5,0,45,0,22.4,0,13,0
2002/12/1,12:30,9.1,0,64.1,0,24.4,0,33.7,0,22.5,0,45,0,22.4,0,13.2,0
2002/12/1,12:45,9.1,0,65.4,0,24.4,0,34.2,0,22.5,0,45,0,22.5,0,13.4,0
2002/12/1,13:00,9.5,0,60.6,0,24.3,0,34.3,0,22.6,0,45.2,0,22.5,0,13.6,0
2002/12/1,13:15,9.6,0,61.8,0,24.3,0,35.1,0,22.6,0,45.1,0,22.7,0,13.3,0
2002/12/1,13:30,9.8,0,61,0,24.4,0,34.9,0,22.6,0,45.5,0,22.7,0,13.4,0
2002/12/1,13:45,9.7,0,62.5,0,24.1,0,37.1,0,22.6,0,45.6,0,22.7,0,13.5,0
2002/12/1,14:00,9.6,0,62.3,0,24.1,0,38.8,0,22.7,0,46,0,22.7,0,13.7,0
2002/12/1,14:15,9.8,0,61.7,0,24.1,0,39.7,0,22.7,0,46.4,0,22.7,0,13.8,0
2002/12/1,14:30,9.6,0,61.3,0,24,0,38.3,0,22.7,0,46.7,0,22.5,0,12.5,0
2002/12/1,14:45,9.5,0,63.3,0,23.7,0,37.9,0,22.7,0,46.7,0,22.6,0,12.2,0
2002/12/1,15:00,9.4,0,64.7,0,23.4,0,37.8,0,22.7,0,46.3,0,22.1,0,12.3,0
2002/12/1,15:15,9,0,62.9,0,23.2,0,37.7,0,22.7,0,45.8,0,22.2,0,12.5,0
2002/12/1,15:30,8.8,0,64.6,0,23.2,0,36.3,0,22.6,0,45.4,0,22.3,0,12.6,0
2002/12/1,15:45,8.5,0,66.4,0,23.1,0,36.6,0,22.6,0,44.9,0,22.3,0,13.7,0
2002/12/1,16:00,8.2,0,72.5,0,23,0,36,0,22.6,0,44.4,0,22.3,0,11.9,0
2002/12/1,16:15,7.3,0,75.2,0,23.1,0,36.3,0,22.5,0,44,0,22.3,0,12,0
2002/12/1,16:30,6.5,0,79.3,0,23.3,0,36.7,0,22.5,0,44.4,0,22.2,0,12.1,0
2002/12/1,16:45,6,0,81.6,0,23.2,0,36.6,0,22.5,0,44.2,0,22.2,0,12.2,0
2002/12/1,17:00,5.6,0,83,0,23.3,0,36.3,0,22.4,0,44.3,0,22.2,0,11.9,0
2002/12/1,17:15,5,0,86,0,23.1,0,37.1,0,22.4,0,44.3,0,22.2,0,12,0
2002/12/1,17:30,4.6,0,88.3,0,23.3,0,37.7,0,22.4,0,44.5,0,22.2,0,12.2,0
2002/12/1,17:45,4.7,0,87.8,0,23.3,0,37.8,0,22.4,0,45.1,0,22.2,0,12.4,0
2002/12/1,18:00,4.6,0,86.4,0,23.3,0,38.2,0,22.4,0,44.6,0,22.2,0,12.5,0
2002/12/1,18:15,4.5,0,89.8,0,23.3,0,36.8,0,22.3,0,44.6,0,22.1,0,13,0
2002/12/1,18:30,4.6,0,90.6,0,23.2,0,36.1,0,22.3,0,44.4,0,22.1,0,13.1,0
2002/12/1,18:45,4.6,0,90.2,0,23.2,0,35.4,0,22.3,0,44.1,0,22.1,0,12.7,0
2002/12/1,19:00,4.5,0,90.7,0,23.3,0,36.2,0,22.2,0,44.3,0,22,0,12.8,0
2002/12/1,19:15,4.7,0,89.3,0,23.3,0,36.2,0,22.2,0,44.3,0,21.9,0,13,0
2002/12/1,19:30,4.9,0,91.1,0,23.3,0,35.9,0,22.2,0,44.5,0,22,0,11.7,0
2002/12/1,19:45,4.9,0,89.2,0,23.1,0,36.4,0,22.2,0,44.1,0,21.9,0,11.9,0
2002/12/1,20:00,5.1,0,88.9,0,23,0,36.5,0,22.1,0,44,0,21.8,0,12,0
2002/12/1,20:15,4.6,0,92.1,0,22.9,0,36.7,0,22.1,0,43.8,0,21.8,0,12.2,0
2002/12/1,20:30,4.4,0,94.1,0,22.8,0,36.6,0,22,0,43.7,0,21.8,0,12.4,0
2002/12/1,20:45,4.1,0,93.1,0,22.9,0,36.4,0,22,0,43.7,0,21.7,0,12.5,0
2002/12/1,21:00,4.1,0,92,0,22.8,0,36.4,0,22,0,43.6,0,21.7,0,12.7,0
2002/12/1,21:15,4.5,0,90.6,0,22.9,0,35.9,0,21.9,0,43.5,0,21.6,0,12.9,0
2002/12/1,21:30,4.8,0,88.4,0,22.7,0,35.7,0,21.9,0,43.5,0,21.6,0,12.5,0
2002/12/1,21:45,4.8,0,88.1,0,22.8,0,36,0,21.9,0,44,0,21.6,0,12.6,0
2002/12/1,22:00,4.8,0,87.5,0,22.8,0,36.3,0,21.9,0,43.3,0,21.6,0,12.8,0
2002/12/1,22:15,4.8,0,88.3,0,22.8,0,36.4,0,21.9,0,43.5,0,21.5,0,12.3,0
2002/12/1,22:30,4.8,0,87.3,0,22.8,0,36.5,0,21.9,0,44.5,0,21.6,0,12.5,0
2002/12/1,22:45,4.8,0,88.8,0,22.9,0,36.9,0,21.9,0,44.5,0,21.6,0,12.2,0
2002/12/1,23:00,4.6,0,88.7,0,22.8,0,37.5,0,21.9,0,44.6,0,21.6,0,12.3,0
2002/12/1,23:15,4.5,0,87.7,0,22.9,0,38.2,0,21.9,0,44.6,0,21.6,0,12.5,0
2002/12/1,23:30,4.4,0,89.8,0,22.9,0,38.5,0,21.9,0,45.1,0,21.6,0,12.6,0
2002/12/1,23:45,4.3,0,90.5,0,22.9,0,38.5,0,21.9,0,44.6,0,21.6,0,12.9,0
2002/12/2,0:00,4.3,0,91.5,0,23.1,0,38.1,0,21.9,0,44.9,0,21.6,0,13,0
2002/12/2,0:15,4.4,0,91,0,22.9,0,37.6,0,21.8,0,44.3,0,21.7,0,13.1,0
2002/12/2,0:30,4.1,0,91.7,0,23,0,37.4,0,21.8,0,45.2,0,21.7,0,12.8,0
2002/12/2,0:45,4,0,91.7,0,23.1,0,38.5,0,21.8,0,45.1,0,21.7,0,12.9,0
2002/12/2,1:00,3.9,0,92.1,0,23,0,38.9,0,21.8,0,44.7,0,21.7,0,13,0
2002/12/2,1:15,3.9,0,91.1,0,23,0,39.2,0,21.8,0,44.9,0,21.7,0,13.1,0
2002/12/2,1:30,4.1,0,90.8,0,23.1,0,38.3,0,21.8,0,45.2,0,21.7,0,12.1,0
2002/12/2,1:45,4.3,0,90.3,0,23.2,0,38,0,21.7,0,45.1,0,21.7,0,11.7,0
2002/12/2,2:00,4.3,0,89.1,0,23.2,0,37.8,0,21.6,0,45.1,0,21.8,0,11.9,0
2002/12/2,2:15,4.4,0,88.1,0,23.2,0,37.6,0,21.5,0,45.3,0,21.8,0,12,0
2002/12/2,2:30,4.3,0,88.9,0,23.2,0,37.4,0,21.5,0,45.4,0,21.8,0,12.2,0
2002/12/2,2:45,4.3,0,89,0,23.4,0,37,0,21.4,0,45.4,0,21.8,0,12.4,0
2002/12/2,3:00,4,0,90,0,23.3,0,36.9,0,21.3,0,45.6,0,21.8,0,12.5,0
2002/12/2,3:15,3.7,0,90.7,0,23.4,0,36.7,0,21.3,0,45.6,0,21.8,0,12.7,0
2002/12/2,3:30,3.4,0,89.3,0,23.2,0,36.7,0,21.2,0,45.8,0,21.8,0,12.9,0
2002/12/2,3:45,3.2,0,88.8,0,23.4,0,36.3,0,21.1,0,46,0,21.8,0,13.1,0
2002/12/2,4:00,3.2,0,87.9,0,23.3,0,36.4,0,21.1,0,46.1,0,21.8,0,13.3,0
2002/12/2,4:15,3.2,0,85.1,0,23.3,0,36.2,0,21,0,46.1,0,21.8,0,13.4,0
2002/12/2,4:30,3.2,0,85.4,0,23.3,0,36,0,20.9,0,46,0,21.8,0,13.6,0
2002/12/2,4:45,3,0,87.5,0,23.4,0,35.6,0,20.9,0,46.2,0,21.7,0,13.8,0
2002/12/2,5:00,3,0,89.1,0,23.5,0,35.5,0,20.8,0,46.1,0,21.7,0,14,0
2002/12/2,5:15,3,0,90,0,23.3,0,35.7,0,20.7,0,46.2,0,21.7,0,14.1,0
2002/12/2,5:30,2.8,0,92.5,0,23.4,0,35.5,0,20.7,0,46.3,0,21.7,0,14.3,0
2002/12/2,5:45,2.8,0,93.7,0,23.3,0,35.5,0,20.6,0,46.4,0,21.7,0,14.5,0
2002/12/2,6:00,2.5,0,94.8,0,22.9,0,36.1,0,20.6,0,45.9,0,21.6,0,14.2,0
2002/12/2,6:15,2.4,0,94.6,0,22.9,0,36.8,0,20.5,0,45.7,0,21.6,0,14.3,0
2002/12/2,6:30,2.3,0,96.7,0,22.9,0,36.8,0,20.5,0,45.6,0,21.6,0,14.4,0
2002/12/2,6:45,2.1,0,97.3,0,22.9,0,36.6,0,20.4,0,45.6,0,21.5,0,14.5,0
2002/12/2,7:00,2,0,96.7,0,22.9,0,36.7,0,20.4,0,45.6,0,21.5,0,14.7,0
2002/12/2,7:15,2.1,0,97.4,0,22.9,0,36.4,0,20.6,0,46.4,0,21.5,0,14.8,0
2002/12/2,7:30,2.3,0,97.3,0,23,0,36.2,0,20.7,0,46.5,0,21.4,0,12.9,0
2002/12/2,7:45,2.7,0,97.6,0,22.9,0,36.3,0,20.8,0,46.5,0,21.4,0,13,0
2002/12/2,8:00,3.2,0,95.7,0,22.7,0,35.5,0,20.8,0,46.5,0,21.4,0,13.2,0
2002/12/2,8:15,3.4,0,94.5,0,22.9,0,35.3,0,20.9,0,46.3,0,21.4,0,12.7,0
2002/12/2,8:30,4,0,91.3,0,23.1,0,35.2,0,21,0,45.9,0,21.5,0,12.8,0
2002/12/2,8:45,5.2,0,85.1,0,23.2,0,36.2,0,21.1,0,46.1,0,21.5,0,12.9,0
2002/12/2,9:00,5.9,0,82.7,0,23.3,0,35.7,0,21.2,0,46.4,0,21.6,0,13.1,0
2002/12/2,9:15,6.3,0,80,0,23.4,0,35.6,0,21.3,0,46.2,0,21.7,0,13.2,0
2002/12/2,9:30,7,0,75.6,0,23.4,0,35.9,0,21.3,0,46.3,0,21.8,0,13.4,0
2002/12/2,9:45,7.4,0,74.4,0,23.6,0,35.6,0,21.4,0,46.4,0,21.8,0,13.5,0
2002/12/2,10:00,7.4,0,74.4,0,23.6,0,35.5,0,21.4,0,46.4,0,21.8,0,13.7,0
2002/12/2,10:15,7.7,0,72.9,0,23.7,0,35.3,0,21.5,0,46.5,0,21.8,0,13.9,0
2002/12/2,10:30,8.1,0,69.4,0,23.7,0,35,0,21.5,0,46.5,0,21.8,0,13.6,0
2002/12/2,10:45,8.5,0,63.5,0,23.8,0,34.8,0,21.6,0,46.5,0,21.8,0,13.6,0
2002/12/2,11:00,8.9,0,61,0,23.8,0,35,0,21.6,0,46.5,0,21.8,0,13.8,0
2002/12/2,11:15,8.9,0,58.2,0,23.8,0,34.9,0,21.7,0,46.4,0,21.9,0,13.9,0
2002/12/2,11:30,9.2,0,57.3,0,23.8,0,35,0,21.7,0,46.3,0,21.9,0,14,0
2002/12/2,11:45,9.1,0,55.1,0,23.7,0,35.1,0,21.7,0,46.2,0,21.9,0,14.2,0
2002/12/2,12:00,8.9,0,56.4,0,23.5,0,35.5,0,21.7,0,46.1,0,21.8,0,14.3,0
2002/12/2,12:15,9.1,0,58.5,0,23.5,0,35.5,0,21.7,0,46,0,21.8,0,14.5,0
2002/12/2,12:30,9.3,0,56.9,0,23.5,0,35.4,0,21.8,0,45.9,0,21.8,0,14.6,0
2002/12/2,12:45,9.4,0,56.5,0,23.5,0,35.4,0,21.8,0,45.8,0,21.8,0,14.8,0
2002/12/2,13:00,9.8,0,55.9,0,23.6,0,35.3,0,21.8,0,45.8,0,21.9,0,14.9,0
2002/12/2,13:15,10.4,0,50.8,0,23.5,0,35.4,0,21.8,0,45.6,0,21.9,0,15.1,0
2002/12/2,13:30,10.8,0,50.6,0,23.8,0,34.9,0,21.9,0,45.3,0,22.1,0,15.3,0
2002/12/2,13:45,10.9,0,49.2,0,23.7,0,34.6,0,21.9,0,45.3,0,22.1,0,15.5,0
2002/12/2,14:00,11.1,0,50.7,0,23.5,0,34.5,0,21.9,0,45.6,0,22.1,0,15.7,0
2002/12/2,14:15,11.1,0,49.1,0,23.5,0,35,0,21.9,0,45.4,0,22.2,0,15.9,0
2002/12/2,14:30,11,0,49.3,0,23.5,0,35.3,0,21.9,0,45.3,0,22.2,0,16.1,0
2002/12/2,14:45,10.7,0,45.1,0,23.5,0,35.5,0,21.9,0,45.4,0,22.2,0,16.2,0
2002/12/2,15:00,10.5,0,45,0,23.4,0,35.5,0,21.9,0,45.5,0,22.1,0,13.4,0
2002/12/2,15:15,10.2,0,50.9,0,23.3,0,35.8,0,21.9,0,45.5,0,22.1,0,13.5,0
2002/12/2,15:30,10,0,44.3,0,23.3,0,35.7,0,21.9,0,45.5,0,22.1,0,12.6,0
2002/12/2,15:45,10,0,44.2,0,23.2,0,35.7,0,21.9,0,45.6,0,22,0,12.7,0
2002/12/2,16:00,9.8,0,49,0,23.2,0,36.3,0,21.9,0,45.6,0,22,0,12.6,0
2002/12/2,16:15,9.4,0,46.6,0,23.2,0,36.6,0,21.9,0,45.7,0,22,0,12.4,0
2002/12/2,16:30,9.3,0,46,0,23.1,0,36.4,0,21.9,0,45.8,0,21.9,0,12.6,0
2002/12/2,16:45,9.1,0,46.1,0,23.2,0,35.9,0,21.9,0,45.8,0,21.9,0,12.7,0
2002/12/2,17:00,8.9,0,46.8,0,23.2,0,35.1,0,21.9,0,45.8,0,21.9,0,13.6,0
2002/12/2,17:15,8.6,0,51.5,0,23.4,0,34.4,0,21.9,0,45.5,0,22,0,12.5,0
2002/12/2,17:30,8.2,0,51.6,0,23.4,0,34.1,0,21.9,0,45,0,22,0,12.7,0
2002/12/2,17:45,7.9,0,53.8,0,23.5,0,34.4,0,21.9,0,44.9,0,22,0,12.6,0
2002/12/2,18:00,7,0,61.8,0,23.5,0,34.7,0,21.9,0,44.8,0,22,0,12.1,0
2002/12/2,18:15,6.1,0,66.1,0,23.5,0,34.9,0,21.9,0,44.8,0,22.1,0,12.2,0
2002/12/2,18:30,5.6,0,68.6,0,23.6,0,34.9,0,21.9,0,44.9,0,22.1,0,12.4,0
2002/12/2,18:45,5.1,0,71.2,0,23.8,0,34.6,0,21.9,0,44.6,0,22.2,0,12.5,0
2002/12/2,19:00,4.9,0,72.6,0,23.7,0,34.7,0,22,0,44.8,0,22.1,0,12.7,0
2002/12/2,19:15,4.6,0,73.7,0,23.7,0,34.6,0,21.9,0,44.7,0,22.1,0,12.9,0
2002/12/2,19:30,4.5,0,75.9,0,23.7,0,34.6,0,22,0,44.7,0,22.1,0,13.1,0
2002/12/2,19:45,4.5,0,74.8,0,23.8,0,34.4,0,22,0,44.6,0,22.1,0,13.2,0
2002/12/2,20:00,4.4,0,76.3,0,23.8,0,34.3,0,22,0,44.6,0,22.1,0,13.4,0
2002/12/2,20:15,4.6,0,72,0,23.8,0,34.6,0,22,0,44.6,0,22.1,0,13.6,0
2002/12/2,20:30,4,0,78.4,0,23.8,0,34.7,0,22,0,44.8,0,22,0,13.7,0
2002/12/2,20:45,3.9,0,80,0,23.8,0,34.8,0,22,0,44.8,0,22,0,13.9,0
2002/12/2,21:00,3.9,0,79.8,0,23.6,0,35.1,0,22,0,45.2,0,22,0,14.1,0
2002/12/2,21:15,4.1,0,79,0,23.6,0,35.1,0,22,0,45.2,0,21.9,0,14.3,0
2002/12/2,21:30,3.8,0,81.8,0,23.6,0,35,0,22,0,45,0,21.9,0,14.4,0
2002/12/2,21:45,4.1,0,80.5,0,23.6,0,35,0,22,0,45.1,0,21.9,0,14.6,0
2002/12/2,22:00,4,0,82.8,0,23.6,0,33.8,0,22,0,45.3,0,21.9,0,14.8,0
2002/12/2,22:15,4.2,0,81.2,0,23.3,0,33.8,0,21.9,0,43.7,0,21.9,0,12.2,0
2002/12/2,22:30,3.8,0,82.9,0,23.4,0,34,0,21.9,0,44.8,0,21.9,0,12.4,0
2002/12/2,22:45,3.3,0,86.6,0,23.5,0,34.2,0,21.9,0,44.7,0,21.9,0,12.5,0
2002/12/2,23:00,3.4,0,85.8,0,23.5,0,34.3,0,21.9,0,44.6,0,21.9,0,12.7,0
2002/12/2,23:15,3,0,88.5,0,23.5,0,34.3,0,21.9,0,44.6,0,21.9,0,12.8,0
2002/12/2,23:30,3,0,90,0,23.5,0,34.3,0,21.9,0,44.8,0,21.8,0,13,0
2002/12/2,23:45,2.8,0,91.4,0,23.6,0,34.1,0,21.9,0,44.5,0,21.9,0,13.1,0
2002/12/3,0:00,2.6,0,91.8,0,23.6,0,34,0,21.9,0,44.6,0,21.9,0,13.3,0
2002/12/3,0:15,2.7,0,91.2,0,23.5,0,34.8,0,21.9,0,44.8,0,22,0,13.4,0
2002/12/3,0:30,2.5,0,93.3,0,23.6,0,34.8,0,21.9,0,44.9,0,22,0,13.6,0
2002/12/3,0:45,2.6,0,92.8,0,23.7,0,34.3,0,21.9,0,44.8,0,22,0,13.7,0
2002/12/3,1:00,2.3,0,92.5,0,23.6,0,36.9,0,21.9,0,45,0,22,0,13.9,0
2002/12/3,1:15,2,0,95.7,0,23.2,0,40.1,0,21.9,0,44.7,0,21.9,0,14.1,0
2002/12/3,1:30,2.1,0,93.7,0,23,0,41.3,0,21.8,0,44.5,0,21.8,0,14.2,0
2002/12/3,1:45,2.2,0,93.1,0,22.9,0,42.2,0,21.8,0,44.3,0,21.6,0,14.3,0
2002/12/3,2:00,1.8,0,94.5,0,22.8,0,41.7,0,21.7,0,44.1,0,21.5,0,14.5,0
2002/12/3,2:15,2,0,92.2,0,22.8,0,42,0,21.6,0,44.1,0,21.4,0,14.6,0
2002/12/3,2:30,2.2,0,90.6,0,22.7,0,41.6,0,21.6,0,44.4,0,21.4,0,14.8,0
2002/12/3,2:45,2.2,0,89.9,0,22.6,0,41.4,0,21.5,0,44.5,0,21.3,0,14.9,0
2002/12/3,3:00,1.8,0,93.1,0,22.6,0,41.3,0,21.5,0,44.4,0,21.2,0,15,0
2002/12/3,3:15,1.4,0,93.6,0,22.5,0,41,0,21.4,0,44.3,0,21.2,0,15.2,0
2002/12/3,3:30,1.4,0,95.8,0,22.5,0,40.2,0,21.3,0,44.3,0,21.1,0,15.4,0
2002/12/3,3:45,1.4,0,93.4,0,22.4,0,40.3,0,21.2,0,44.3,0,21.1,0,15.5,0
2002/12/3,4:00,1.1,0,94.3,0,22.4,0,39.9,0,21.2,0,44.6,0,21,0,15.7,0
2002/12/3,4:15,1.2,0,93.3,0,22.4,0,39.7,0,21.1,0,44.6,0,21,0,15.8,0
2002/12/3,4:30,0.7,0,96.3,0,22.3,0,39.1,0,21,0,44.5,0,20.9,0,16,0
2002/12/3,4:45,0.4,0,96.4,0,22.3,0,38.9,0,20.9,0,44.5,0,20.9,0,16.1,0
2002/12/3,5:00,0.6,0,95.9,0,22.2,0,38.5,0,20.8,0,44.3,0,20.8,0,16.3,0
2002/12/3,5:15,0.9,0,94.6,0,22.2,0,38.3,0,20.7,0,44.6,0,20.8,0,16.4,0
2002/12/3,5:30,0.7,0,93.7,0,22.2,0,38,0,20.7,0,44.6,0,20.8,0,16.6,0
2002/12/3,5:45,0.7,0,93.4,0,22.1,0,37.7,0,20.6,0,44.5,0,20.7,0,16.7,0
2002/12/3,6:00,0.9,0,91.7,0,22.1,0,37.5,0,20.5,0,44.5,0,20.7,0,16.8,0
2002/12/3,6:15,0.8,0,92.1,0,22.1,0,37.3,0,20.4,0,44.6,0,20.6,0,16.9,0
2002/12/3,6:30,0.6,0,95.5,0,22,0,37.2,0,20.3,0,44.5,0,20.6,0,17.1,0
2002/12/3,6:45,0.6,0,94.5,0,22,0,37,0,20.2,0,44.4,0,20.6,0,17.2,0
2002/12/3,7:00,0.5,0,94.8,0,22,0,36.8,0,20.2,0,44.5,0,20.5,0,17.3,0
2002/12/3,7:15,0.8,0,94.5,0,21.9,0,36.7,0,20.1,0,44.5,0,20.5,0,17.4,0
2002/12/3,7:30,0.9,0,93.1,0,21.9,0,36.6,0,20.1,0,44.7,0,20.5,0,17.5,0
2002/12/3,7:45,1,0,95.9,0,22,0,36.3,0,20,0,44.6,0,20.5,0,14.9,0
2002/12/3,8:00,1.8,0,93.4,0,22.2,0,36.1,0,20,0,44.3,0,20.6,0,15.1,0
2002/12/3,8:15,2.5,0,90.2,0,22.4,0,35.8,0,20,0,44.1,0,20.7,0,15.1,0
2002/12/3,8:30,3.1,0,82.7,0,22.6,0,35.5,0,20,0,44.2,0,20.6,0,15.3,0
2002/12/3,8:45,3.5,0,78.4,0,22.8,0,34.8,0,20.1,0,44.2,0,20.7,0,15.4,0
2002/12/3,9:00,3.9,0,78,0,23,0,34.7,0,20.1,0,44.3,0,20.8,0,15.6,0
2002/12/3,9:15,4.3,0,75.5,0,23.1,0,34.5,0,20.1,0,44.4,0,21,0,15.7,0
2002/12/3,9:30,4.6,0,75,0,23.2,0,34.5,0,20.1,0,44.6,0,21.1,0,12.3,0
2002/12/3,9:45,5.2,0,74.2,0,23.4,0,34.3,0,20.3,0,45.5,0,21.2,0,11.4,0
2002/12/3,10:00,5.7,0,71.5,0,23.5,0,34.4,0,20.5,0,45.8,0,21.3,0,11.5,0
2002/12/3,10:15,6.2,0,68.4,0,23.6,0,34.2,0,20.6,0,45.7,0,21.4,0,11.7,0
2002/12/3,10:30,6.5,0,69.9,0,23.7,0,34.8,0,20.7,0,45.9,0,21.5,0,11.8,0
2002/12/3,10:45,7.1,0,67.6,0,23.7,0,34.8,0,20.8,0,46.1,0,21.6,0,12,0
2002/12/3,11:00,7.5,0,66,0,23.6,0,35.1,0,20.9,0,46.4,0,21.6,0,12.1,0
2002/12/3,11:15,7.8,0,68.9,0,23.7,0,34.2,0,20.9,0,46.4,0,21,0,12.2,0
2002/12/3,11:30,7.8,0,67.2,0,23.7,0,34.7,0,21,0,46.1,0,21.4,0,12.3,0
2002/12/3,11:45,8.4,0,64.8,0,23.8,0,34.7,0,21.1,0,46.1,0,21.6,0,12.5,0
2002/12/3,12:00,9,0,63.8,0,23.9,0,34.5,0,21.2,0,46.1,0,21.7,0,12.5,0
2002/12/3,12:15,9.6,0,61.6,0,24,0,34.3,0,21.2,0,46.1,0,21.7,0,11.9,0
2002/12/3,12:30,9.7,0,62.4,0,23.8,0,34.7,0,21.3,0,46.1,0,21.8,0,12,0
2002/12/3,12:45,9.7,0,63.3,0,24,0,34.5,0,21.3,0,46,0,21.8,0,11.9,0
2002/12/3,13:00,10.3,0,61.7,0,23.9,0,34.9,0,21.4,0,46,0,21.9,0,12,0
2002/12/3,13:15,10.5,0,61.7,0,23.8,0,35.1,0,21.4,0,45.9,0,21.9,0,12.2,0
2002/12/3,13:30,10.7,0,61.3,0,23.9,0,35.2,0,21.5,0,45.9,0,22,0,12.4,0
2002/12/3,13:45,10.7,0,59.9,0,23.9,0,35.3,0,21.5,0,46,0,22,0,12.5,0
2002/12/3,14:00,11,0,58.8,0,23.9,0,35.4,0,21.6,0,46,0,22.1,0,12.7,0
2002/12/3,14:15,10.8,0,59.8,0,23.9,0,35.3,0,21.6,0,45.9,0,22.1,0,12.9,0
2002/12/3,14:30,10.6,0,59.9,0,23.9,0,35.4,0,21.7,0,45.9,0,22.2,0,13.1,0
2002/12/3,14:45,10.3,0,62.2,0,23.9,0,35.4,0,21.7,0,46,0,22.2,0,13.2,0
2002/12/3,15:00,9.9,0,63.8,0,23.9,0,35.6,0,21.7,0,45.9,0,22.2,0,13.4,0
2002/12/3,15:15,9.6,0,66,0,23.9,0,35.5,0,21.8,0,45.9,0,22.2,0,13.6,0
2002/12/3,15:30,9.3,0,69,0,23.9,0,35.5,0,21.8,0,45.9,0,22.2,0,13.8,0
2002/12/3,15:45,8.9,0,71.8,0,23.8,0,35.8,0,21.8,0,45.9,0,22.1,0,13.1,0
2002/12/3,16:00,8.4,0,77.1,0,23.8,0,35.8,0,21.8,0,45.9,0,22.1,0,13.2,0
2002/12/3,16:15,8,0,79.3,0,23.8,0,36,0,21.8,0,45.9,0,22.1,0,13.3,0
2002/12/3,16:30,7.6,0,81.9,0,23.8,0,36.1,0,21.9,0,45.9,0,22.1,0,13.5,0
2002/12/3,16:45,7,0,83.3,0,23.9,0,35.6,0,21.9,0,46,0,22.2,0,13.6,0
2002/12/3,17:00,6.5,0,86.3,0,23.7,0,36,0,21.9,0,46,0,22.2,0,13.8,0
2002/12/3,17:15,6.3,0,87.7,0,23.7,0,36,0,21.9,0,46,0,22.1,0,13.9,0
2002/12/3,17:30,6.4,0,89.4,0,23.6,0,36.2,0,21.9,0,46,0,22.1,0,13.5,0
2002/12/3,17:45,6.4,0,89.4,0,23.7,0,36.2,0,21.9,0,46,0,22,0,12.3,0
2002/12/3,18:00,6.4,0,90.7,0,23.8,0,35.8,0,21.9,0,46,0,22.1,0,12.5,0
2002/12/3,18:15,6.5,0,89.3,0,23.7,0,35.8,0,21.9,0,46,0,22.1,0,12.6,0
2002/12/3,18:30,6.6,0,90.1,0,23.7,0,35.8,0,21.9,0,46,0,22,0,12.8,0
2002/12/3,18:45,6.7,0,91.5,0,23.6,0,35.9,0,21.9,0,46,0,22,0,13,0
2002/12/3,19:00,6.7,0,90.7,0,23.7,0,35.8,0,21.9,0,46,0,22,0,13.1,0
2002/12/3,19:15,6.8,0,90.9,0,23.6,0,36.1,0,21.9,0,45.9,0,22,0,13.3,0
2002/12/3,19:30,6.7,0,90.9,0,23.6,0,35.8,0,21.9,0,45.9,0,22,0,13.4,0
2002/12/3,19:45,6.4,0,91.7,0,23.7,0,35.7,0,21.9,0,45.9,0,22,0,13.6,0
2002/12/3,20:00,6.1,0,93.8,0,23.6,0,35.8,0,21.9,0,46,0,21.9,0,13.7,0
2002/12/3,20:15,6,0,92.8,0,23.6,0,35.8,0,21.9,0,46,0,21.9,0,13.9,0
2002/12/3,20:30,5.8,0,94.5,0,23.6,0,35.8,0,22,0,46,0,21.9,0,14,0
2002/12/3,20:45,5.6,0,96,0,23.5,0,35.8,0,22,0,46,0,21.9,0,14.2,0
2002/12/3,21:00,5.2,0,95.7,0,23.5,0,35.8,0,21.9,0,46,0,21.9,0,14.4,0
2002/12/3,21:15,4.9,0,96.9,0,23.5,0,35.8,0,21.9,0,46,0,21.8,0,14.5,0
2002/12/3,21:30,4.7,0,98.1,0,23.5,0,35.6,0,21.9,0,45.9,0,21.8,0,14.7,0
2002/12/3,21:45,4.5,0,97.9,0,23.5,0,35.5,0,21.9,0,45.9,0,21.8,0,14.8,0
2002/12/3,22:00,4.4,0,98.1,0,23.5,0,35.4,0,21.9,0,46,0,21.8,0,15,0
2002/12/3,22:15,4.1,0,99.1,0,23.5,0,35.5,0,21.9,0,46,0,21.7,0,15.1,0
2002/12/3,22:30,4,0,98.6,0,23.5,0,35.5,0,21.9,0,45.9,0,21.7,0,15.3,0
2002/12/3,22:45,3.8,0,97.6,0,23.6,0,34.9,0,21.9,0,45.8,0,21.7,0,15.5,0
2002/12/3,23:00,3.6,0,100,0,23.5,0,35.3,0,21.9,0,45.8,0,21.7,0,14.5,0
2002/12/3,23:15,3.5,0,100,0,23.6,0,35.2,0,21.9,0,45.7,0,21.7,0,14.6,0
2002/12/3,23:30,3.6,0,98.6,0,23.6,0,35.1,0,21.9,0,45.6,0,21.7,0,14.7,0
2002/12/3,23:45,3.5,0,99.1,0,23.6,0,35.4,0,22,0,45.5,0,21.8,0,14.8,0
2002/12/4,0:00,3.4,0,100,0,23.7,0,35.4,0,22,0,45.4,0,21.9,0,14.9,0
2002/12/4,0:15,3.2,0,99.2,0,23.9,0,35.2,0,22,0,45.4,0,21.9,0,15.1,0
2002/12/4,0:30,3.2,0,99.3,0,23.9,0,35,0,22,0,45.4,0,22,0,15.3,0
2002/12/4,0:45,3,0,99.9,0,24,0,34.9,0,22,0,45.3,0,22,0,15.4,0
2002/12/4,1:00,3,0,100,0,24.1,0,34.7,0,22,0,45.2,0,22,0,15.6,0
2002/12/4,1:15,2.9,0,99.9,0,23.8,0,35.2,0,22,0,45.4,0,21.9,0,14.1,0
2002/12/4,1:30,2.8,0,100,0,23.6,0,35.4,0,22,0,45,0,21.8,0,14.2,0
2002/12/4,1:45,2.8,0,100,0,23.5,0,35.4,0,21.9,0,44.8,0,21.7,0,14.3,0
2002/12/4,2:00,2.6,0,100,0,23.3,0,35.5,0,21.9,0,44.6,0,21.5,0,14.4,0
2002/12/4,2:15,2.7,0,100,0,23.2,0,35.6,0,21.8,0,44.5,0,21.5,0,14.5,0
2002/12/4,2:30,2.6,0,100,0,23.1,0,35.6,0,21.7,0,44.7,0,21.4,0,14.6,0
2002/12/4,2:45,2.6,0,100,0,23.1,0,35.7,0,21.7,0,44.8,0,21.3,0,14.8,0
2002/12/4,3:00,2.6,0,100,0,22.8,0,36,0,21.6,0,44.8,0,21.3,0,14.9,0
2002/12/4,3:15,2.7,0,100,0,22.7,0,36.2,0,21.6,0,44.8,0,21.2,0,15.1,0
2002/12/4,3:30,2.6,0,100,0,22.7,0,36.2,0,21.5,0,44.8,0,21.2,0,15.2,0
2002/12/4,3:45,2.6,0,100,0,22.6,0,36.2,0,21.4,0,45,0,21.1,0,15.4,0
2002/12/4,4:00,2.8,0,100,0,22.5,0,36.3,0,21.4,0,45,0,21,0,15.5,0
2002/12/4,4:15,2.8,0,100,0,22.5,0,36.3,0,21.3,0,45,0,21,0,15.6,0
2002/12/4,4:30,2.8,0,100,0,22.5,0,36.3,0,21.2,0,44.9,0,21,0,15.8,0
2002/12/4,4:45,2.7,0,100,0,22.4,0,36.3,0,21.2,0,45,0,20.9,0,15.9,0
2002/12/4,5:00,2.7,0,100,0,22.4,0,36.4,0,21.1,0,45,0,20.9,0,16.1,0
2002/12/4,5:15,2.8,0,100,0,22.3,0,36.5,0,21,0,45,0,20.8,0,16.2,0
2002/12/4,5:30,2.8,0,100,0,22.3,0,36.5,0,21,0,45.1,0,20.8,0,16.4,0
2002/12/4,5:45,2.9,0,100,0,22.2,0,36.5,0,20.9,0,45.1,0,20.8,0,16.5,0
2002/12/4,6:00,3,0,100,0,22.2,0,36.5,0,20.8,0,45.2,0,20.7,0,16.6,0
2002/12/4,6:15,3,0,100,0,22.2,0,36.5,0,20.8,0,45.2,0,20.7,0,16.8,0
2002/12/4,6:30,3.1,0,100,0,22.2,0,36.5,0,20.7,0,45.3,0,20.7,0,16.9,0
2002/12/4,6:45,3.2,0,100,0,22.1,0,36.6,0,20.6,0,45.3,0,20.7,0,17,0
2002/12/4,7:00,3.1,0,100,0,22,0,36.6,0,20.5,0,45.2,0,20.6,0,17.2,0
2002/12/4,7:15,3,0,100,0,22.1,0,36.5,0,20.5,0,45.3,0,20.6,0,17.3,0
2002/12/4,7:30,3.1,0,100,0,22,0,36.6,0,20.4,0,45.4,0,20.6,0,17.4,0
2002/12/4,7:45,3.2,0,100,0,22,0,36.6,0,20.4,0,45.4,0,20.6,0,17.5,0
2002/12/4,8:00,3.5,0,100,0,21.8,0,37,0,20.3,0,45.4,0,20.5,0,14.9,0
2002/12/4,8:15,3.8,0,99.3,0,21.9,0,37,0,20.3,0,45.4,0,20.5,0,15,0
2002/12/4,8:30,3.8,0,99.3,0,22,0,36.7,0,20.4,0,45.9,0,20.6,0,15.1,0
2002/12/4,8:45,4.1,0,99.2,0,21.9,0,36.4,0,20.4,0,45.9,0,19.8,0,15.2,0
2002/12/4,9:00,4.3,0,99.3,0,21.9,0,36.7,0,20.4,0,45.9,0,20.3,0,12.6,0
2002/12/4,9:15,4.5,0,98.6,0,21.8,0,36.6,0,20.4,0,45.9,0,20.5,0,11.7,0
2002/12/4,9:30,4.7,0,99.2,0,21.8,0,36.4,0,20.4,0,46,0,20.5,0,11.4,0
2002/12/4,9:45,4.6,0,98.2,0,21.9,0,36.4,0,20.5,0,45.8,0,20.5,0,11.4,0
2002/12/4,10:00,4.8,0,100,0,22,0,36.3,0,20.5,0,45.7,0,20.6,0,11.5,0
2002/12/4,10:15,4.8,0,100,0,22,0,36.4,0,20.5,0,45.6,0,20.6,0,11.7,0
2002/12/4,10:30,4.8,0,100,0,22.1,0,36.3,0,20.5,0,45.6,0,20.7,0,11.8,0
2002/12/4,10:45,4.6,0,100,0,22.1,0,36.3,0,20.5,0,45.5,0,20.7,0,12,0
2002/12/4,11:00,4.7,0,100,0,22.2,0,36.3,0,20.5,0,45.5,0,20.7,0,12.2,0
2002/12/4,11:15,4.8,0,100,0,22.1,0,36.4,0,20.6,0,45.6,0,20.8,0,12.3,0
2002/12/4,11:30,4.9,0,100,0,22.2,0,36.4,0,20.6,0,45.6,0,20.9,0,12.5,0
2002/12/4,11:45,4.7,0,100,0,22.2,0,36.4,0,20.6,0,45.5,0,20.9,0,12.7,0
2002/12/4,12:00,4.8,0,100,0,22.2,0,36.4,0,20.6,0,45.6,0,20.9,0,12.8,0
2002/12/4,12:15,5.1,0,100,0,22.2,0,36.4,0,20.6,0,45.6,0,21,0,13,0
2002/12/4,12:30,5.4,0,100,0,22.3,0,36.5,0,20.6,0,45.6,0,21,0,13.2,0
2002/12/4,12:45,5.5,0,100,0,22.3,0,36.4,0,20.7,0,45.6,0,21,0,13.3,0
2002/12/4,13:00,5.6,0,100,0,22.4,0,36.4,0,20.7,0,45.6,0,21.1,0,13.5,0